Location: Newark
(25.0000°N, 73.5000°E)
Time: 11:44:41
(UTC+00:00)

Altair - Pass Details

Date: 10 March 2021
Orbit: 1501 x 1683 km, 47.2° (Epoch: 15 April)

Event Time Altitude Azimuth Distance (km) Brightness Sun altitude
Rises 20:24:20 0° 301° (WNW) 4,763 - -63.2°
Reaches altitude 10° 20:27:44 10° 293° (WNW) 3,804 - -62.7°
Maximum altitude 20:36:10 35° 232° (SW) 2,428 - -61.3°
Drops below altitude 10° 20:44:52 10° 171° (S) 3,907 - -59.9°
Sets 20:48:26 0° 163° (SSE) 4,908 - -59.3°
